Thomasville, PA

1:50 AM EDT on September 29, 2016 (GMT -0400)
York

Weather History for KTHV - March, 2013

Change the Weather History Date:

Friday, March 8, 2013

  Actual Average Record
Temperature  
Mean Temperature 39 °F -  
Max Temperature 46 °F 0 °F 73 °F (2016)
Min Temperature 32 °F - -7 °F (2007)
Degree Days  
Heating Degree Days 26    
Moisture  
Dew Point 22 °F    
Average Humidity 50    
Maximum Humidity 64    
Minimum Humidity 39    
Precipitation  
Precipitation 0.00 in - - ()
Sea Level Pressure  
Sea Level Pressure 30.20 in    
Wind  
Wind Speed 10 mph (NNW)    
Max Wind Speed 20 mph    
Max Gust Speed 31 mph    
Visibility 10 miles    
Events      
Averages and records for this station are not official NWS values.
T = Trace of Precipitation, MM = Missing Value Source: NWS Daily Summary

Daily Weather History Graph

Daily Weather History Graph

Search for Another Location

Airport or City:

Trip Planner

Search our weather history database for the weather conditions in past years. The results will help you decide how hot, cold, wet, or windy it might be!

Date:

Astronomy

Mar. 08, 2013 Rise Set
Actual Time 6:29 AM EST 6:07 PM EST
Civil Twilight 6:02 AM EST 6:34 PM EST
Nautical Twilight 5:31 AM EST 7:05 PM EST
Astronomical Twilight 4:59 AM EST 7:37 PM EST
Moon 4:12 AM EST (3/8) 3:00 PM EST (3/8)
Length of Visible Light 12h 31m
Length of Day
11h 37m
Waning Crescent, 12% of the Moon is Illuminated
Mar 8
Waning Crescent
Mar 11
New
Mar 19
First Quarter
Mar 27
Full
Apr 3
Last Quarter

Hourly Weather History & Observations

Time (EST) Temp. Windchill Dew Point Humidity Pressure Visibility Wind Dir Wind Speed Gust Speed Precip Events Conditions
12:53 AM 35.1 °F 29.3 °F 23.0 °F 61% 30.16 in 10.0 mi North 6.9 mph - N/A   Mostly Cloudy
1:53 AM 33.1 °F 28.7 °F 21.0 °F 61% 30.16 in 10.0 mi NW 4.6 mph - N/A   Clear
2:53 AM 34.0 °F 28.0 °F 19.0 °F 54% 30.15 in 10.0 mi NNW 6.9 mph - N/A   Partly Cloudy
3:53 AM 33.1 °F 30.0 °F 19.9 °F 59% 30.15 in 10.0 mi North 3.5 mph - N/A   Mostly Cloudy
4:53 AM 32.0 °F 27.5 °F 21.0 °F 64% 30.15 in 10.0 mi NW 4.6 mph - N/A   Overcast
5:53 AM 34.0 °F 25.5 °F 21.0 °F 59% 30.15 in 10.0 mi NNW 11.5 mph 23.0 mph N/A   Overcast
6:53 AM 34.0 °F 25.0 °F 19.0 °F 54% 30.17 in 10.0 mi NNW 12.7 mph 23.0 mph N/A   Overcast
7:53 AM 35.1 °F 25.2 °F 19.0 °F 52% 30.19 in 10.0 mi NNW 16.1 mph 23.0 mph N/A   Overcast
8:53 AM 36.0 °F 25.3 °F 18.0 °F 48% 30.18 in 10.0 mi NNW 19.6 mph 29.9 mph N/A   Mostly Cloudy
9:53 AM 37.9 °F 28.5 °F 19.9 °F 48% 30.20 in 10.0 mi NNW 17.3 mph 27.6 mph N/A   Partly Cloudy
10:53 AM 39.9 °F 30.8 °F 21.0 °F 47% 30.19 in 10.0 mi NNW 18.4 mph 31.1 mph N/A   Clear
11:53 AM 42.1 °F 33.9 °F 21.9 °F 45% 30.18 in 10.0 mi NNW 17.3 mph 31.1 mph N/A   Clear
12:53 PM 44.1 °F 36.2 °F 23.0 °F 43% 30.16 in 10.0 mi NW 18.4 mph 27.6 mph N/A   Partly Cloudy
1:53 PM 46.9 °F - 23.0 °F 39% 30.15 in 10.0 mi NNW 18.4 mph 26.5 mph N/A   Overcast
2:53 PM 46.0 °F 39.3 °F 24.1 °F 42% 30.17 in 10.0 mi NNW 16.1 mph 31.1 mph N/A   Overcast
3:53 PM 46.0 °F 39.6 °F 24.1 °F 42% 30.18 in 10.0 mi NNW 15.0 mph 20.7 mph N/A   Overcast
4:53 PM 46.0 °F 39.3 °F 25.0 °F 44% 30.21 in 10.0 mi North 16.1 mph 23.0 mph N/A   Overcast
5:53 PM 44.1 °F 38.6 °F 24.1 °F 45% 30.23 in 10.0 mi North 10.4 mph 23.0 mph N/A   Scattered Clouds
6:53 PM 44.1 °F 39.0 °F 24.1 °F 45% 30.26 in 10.0 mi North 9.2 mph - N/A   Overcast
7:53 PM 42.1 °F 37.7 °F 23.0 °F 47% 30.27 in 10.0 mi NNW 6.9 mph - N/A   Scattered Clouds
8:53 PM 42.1 °F 40.2 °F 24.1 °F 49% 30.28 in 10.0 mi NNW 3.5 mph - N/A   Overcast
9:53 PM 39.9 °F 36.7 °F 21.9 °F 49% 30.30 in 10.0 mi NNW 4.6 mph - N/A   Scattered Clouds
10:53 PM 39.0 °F 34.0 °F 21.0 °F 49% 30.30 in 10.0 mi North 6.9 mph - N/A   Clear
11:53 PM 37.9 °F 30.0 °F 19.9 °F 48% 30.30 in 10.0 mi North 12.7 mph 21.9 mph N/A   Clear